星链-6247 (STARLINK-6247 )

导读 | 豆包AI

STARLINK-6247是美国SpaceX公司星链(Starlink)卫星互联网项目中的一颗卫星,于美国东部时间2023年6月22日发射升空。作为星链低轨卫星星座的组成部分,它旨在为全球偏远、缺乏传统网络基础设施的地区,提供低延迟、高速的宽带互联网接入服务,助力星链实现全球网络覆盖的目标,推动卫星互联网服务的普及落地。

Basic Information
目录编号:
57086
目录名称:
STARLINK-6247
国际标识:
2023-088AQ
轨道中心:
EARTH
卫星名称:
星链-6247
卫星全名:
星链-6247 (STARLINK-6247 )
卫星状态:
在轨 (已飞行1043 天)
发射日期:
2023-06-22 UTC
国别 :
美国 (US)
星等 :
--
Orbit Information
数据来源 国际轨道数据 AOE轨道数据
星历时间 2026-04-30T03:53:24+0800
12小时前
查看轨道信息
2026-04-26T09:00:00+0800
4天前
查看轨道信息
半长轴 6863.719km 6863.691km
偏心率 0.0000946 0.0001366
轨道倾角 43.002° 43.003°
近地点辐角 277.241° 259.326°
升交点赤经 167.119° 188.481°
平近点角 82.834° 141.482°
近地点 484.932km 484.616km
远地点 486.232km 486.492km
周期 94.319分钟 94.318分钟
每日圈数 15.267348 15.267439
Detailed Information
固有亮度:
5
最大亮度:
2.4
卫星平台:
Starlink v1.5
覆盖范围:
全球
运营商:
太空探索技术公司
运营商所在国:
美国
制造商(研发单位):
太空探索技术公司
制造商所在国:
美国
使用方式:
暂无
Satellite Introduction
星链(Starlink)计划是由太空探索技术公司(SpaceX)提出的一个巨型低轨卫星互联网星座项目,计划在2019年至2024年间在太空搭建由约1.2万颗卫星组成的“星链”网络,其中1584颗将部署在地球上空550千米处的近地轨道,并从2020年开始工作。该卫星仍在工作。
2D Orbit Map
3D Orbit Map
Orbit Altitude Analysis Chart
Orbit Inclination Analysis Chart
Orbit Comprehensive Analysis Chart
View Comprehensive Chart